{"data":{"norad_id":61524,"epoch":"2026-09-20T16:00:01.998720Z","epoch_age_seconds":177701,"freshness":"STALE","line1":"1 61524U 24183R   26263.66668980  .00023954  00000+0  78135-3 0  9993","line2":"2 61524  53.1583 315.0414 0001095  77.7894 114.5765 15.31693586  5685","mean_motion":15.31693586,"eccentricity":0.0001095,"inclination_deg":53.1583,"raan_deg":315.0414,"arg_perigee_deg":77.7894,"mean_anomaly_deg":114.5765,"bstar":0.00078135,"rev_number":568,"period_min":94.013581643346,"perigee_km":470.00916096801,"apogee_km":471.50906921721,"semimajor_km":6848.8961150926,"source":"CELESTRAK","updated_at":"2026-09-22T09:00:49.358196Z"}}